Previsão horária em Barmaky

Hoje, 21 Outubro, Quarta-feira

Tempo Temperatura Precipitação Vento Pressão Humidade
00:00 +5°C° 0 mm 3 m/s 748 mmHg 79%
01:00 +5°C° 0 mm 3 m/s 748 mmHg 76%
02:00 +5°C° 0 mm 4 m/s 748 mmHg 74%
03:00 +5°C° 0 mm 4 m/s 747 mmHg 73%
04:00 +5°C° 0 mm 4 m/s 747 mmHg 72%
05:00 +5°C° 0 mm 4 m/s 747 mmHg 72%
06:00 +5°C° 0 mm 4 m/s 746 mmHg 72%
07:00 +5°C° 0 mm 4 m/s 746 mmHg 72%
08:00 +6°C° 0 mm 4 m/s 746 mmHg 72%
09:00 +7°C° 0 mm 5 m/s 746 mmHg 68%
10:00 +8°C° 0 mm 5 m/s 746 mmHg 64%
11:00 +9°C° 0 mm 6 m/s 746 mmHg 60%
12:00 +10°C° 0 mm 6 m/s 745 mmHg 59%
13:00 +10°C° 0 mm 6 m/s 745 mmHg 58%
14:00 +12°C° 0 mm 5 m/s 745 mmHg 57%
15:00 +10°C° 0 mm 5 m/s 745 mmHg 60%
16:00 +11°C° 0 mm 4 m/s 744 mmHg 64%
17:00 +10°C° 0 mm 3 m/s 744 mmHg 67%
18:00 +9°C° 0 mm 3 m/s 744 mmHg 69%
19:00 +9°C° 0 mm 3 m/s 744 mmHg 71%
20:00 +8°C° 0 mm 3 m/s 744 mmHg 72%
21:00 +8°C° 0 mm 3 m/s 744 mmHg 71%
22:00 +8°C° 0 mm 3 m/s 744 mmHg 71%
23:00 +8°C° 0 mm 3 m/s 744 mmHg 70%

Amanhã, 22 Outubro, Quinta-feira

Tempo Temperatura Precipitação Vento Pressão Humidade
00:00 +8°C° 0 mm 3 m/s 744 mmHg 70%
01:00 +7°C° 0 mm 3 m/s 744 mmHg 71%
02:00 +7°C° 0 mm 3 m/s 744 mmHg 71%
03:00 +7°C° 0 mm 3 m/s 744 mmHg 72%
04:00 +7°C° 0 mm 3 m/s 744 mmHg 72%
05:00 +7°C° 0 mm 3 m/s 744 mmHg 73%
06:00 +6°C° 0 mm 4 m/s 744 mmHg 72%
07:00 +7°C° 0 mm 4 m/s 744 mmHg 71%
08:00 +7°C° 0 mm 4 m/s 744 mmHg 69%
09:00 +9°C° 0 mm 5 m/s 744 mmHg 67%
10:00 +11°C° 0 mm 6 m/s 744 mmHg 65%
11:00 +13°C° 0 mm 6 m/s 744 mmHg 62%
12:00 +14°C° 0 mm 6 m/s 744 mmHg 61%
13:00 +15°C° 0 mm 6 m/s 744 mmHg 60%
14:00 +15°C° 0 mm 5 m/s 744 mmHg 59%
15:00 +15°C° 0 mm 4 m/s 744 mmHg 64%
16:00 +14°C° 0 mm 4 m/s 744 mmHg 68%
17:00 +13°C° 0 mm 3 m/s 743 mmHg 72%
18:00 +12°C° 0 mm 3 m/s 743 mmHg 72%
19:00 +12°C° 0 mm 3 m/s 744 mmHg 72%
20:00 +12°C° 0 mm 3 m/s 744 mmHg 71%
21:00 +11°C° 0 mm 3 m/s 744 mmHg 72%
22:00 +11°C° 0 mm 3 m/s 744 mmHg 72%
23:00 +11°C° 0 mm 3 m/s 744 mmHg 73%

Depois de amanhã, 23 Outubro, Sexta-feira

Tempo Temperatura Precipitação Vento Pressão Humidade
00:00 +10°C° 0 mm 3 m/s 744 mmHg 75%
01:00 +10°C° 0 mm 3 m/s 744 mmHg 77%
02:00 +9°C° 0 mm 3 m/s 744 mmHg 80%
03:00 +9°C° 0 mm 3 m/s 743 mmHg 81%
04:00 +9°C° 0 mm 3 m/s 743 mmHg 81%
05:00 +9°C° 0 mm 3 m/s 743 mmHg 82%
06:00 +9°C° 0 mm 3 m/s 743 mmHg 80%
07:00 +9°C° 0 mm 3 m/s 743 mmHg 78%
08:00 +9°C° 0 mm 3 m/s 743 mmHg 76%
09:00 +11°C° 0 mm 3 m/s 742 mmHg 72%
10:00 +12°C° 0 mm 3 m/s 742 mmHg 67%
11:00 +14°C° 0 mm 3 m/s 742 mmHg 63%
12:00 +14°C° 0 mm 4 m/s 742 mmHg 62%
13:00 +15°C° 0 mm 4 m/s 741 mmHg 62%
14:00 +17°C° 0 mm 4 m/s 741 mmHg 61%
15:00 +16°C° 0 mm 3 m/s 741 mmHg 67%
16:00 +13°C° 0 mm 3 m/s 741 mmHg 72%
17:00 +12°C° 0 mm 3 m/s 740 mmHg 77%
18:00 +12°C° 0 mm 3 m/s 740 mmHg 80%
19:00 +12°C° 0 mm 2 m/s 740 mmHg 82%
20:00 +12°C° 0 mm 2 m/s 740 mmHg 85%
21:00 +10°C° 0 mm 2 m/s 740 mmHg 87%
22:00 +10°C° 0 mm 2 m/s 740 mmHg 89%
23:00 +10°C° 0 mm 2 m/s 740 mmHg 91%

24 Outubro, Sábado

Tempo Temperatura Precipitação Vento Pressão Humidade
00:00 +10°C° 0 mm 2 m/s 740 mmHg 92%
01:00 +9°C° 0 mm 2 m/s 740 mmHg 93%
02:00 +9°C° 0 mm 2 m/s 740 mmHg 94%
03:00 +9°C° 0 mm 2 m/s 740 mmHg 94%
04:00 +9°C° 0 mm 2 m/s 740 mmHg 93%
05:00 +9°C° 0 mm 2 m/s 740 mmHg 93%
06:00 +10°C° 0.1 mm 2 m/s 740 mmHg 92%
07:00 +10°C° 0.1 mm 2 m/s 739 mmHg 91%
08:00 +10°C° 0.1 mm 2 m/s 739 mmHg 91%
09:00 +10°C° 0.1 mm 2 m/s 739 mmHg 89%
10:00 +12°C° 0.1 mm 2 m/s 739 mmHg 87%
11:00 +12°C° 0.1 mm 2 m/s 739 mmHg 85%
12:00 +12°C° 0 mm 3 m/s 739 mmHg 81%
13:00 +13°C° 0 mm 3 m/s 738 mmHg 77%
14:00 +14°C° 0 mm 4 m/s 738 mmHg 73%
15:00 +13°C° 0.4 mm 5 m/s 738 mmHg 80%
16:00 +12°C° 0.4 mm 5 m/s 738 mmHg 86%
17:00 +10°C° 0.4 mm 6 m/s 738 mmHg 92%
18:00 +10°C° 0.5 mm 6 m/s 738 mmHg 89%
19:00 +10°C° 0.5 mm 6 m/s 738 mmHg 85%
20:00 +9°C° 0.5 mm 6 m/s 739 mmHg 82%
21:00 +9°C° 0 mm 6 m/s 739 mmHg 82%
22:00 +8°C° 0 mm 7 m/s 740 mmHg 82%
23:00 +6°C° 0 mm 7 m/s 740 mmHg 82%

25 Outubro, Domingo

Tempo Temperatura Precipitação Vento Pressão Humidade
00:00 +6°C° 0.1 mm 8 m/s 740 mmHg 82%
01:00 +6°C° 0.1 mm 8 m/s 740 mmHg 81%
02:00 +6°C° 0.1 mm 8 m/s 741 mmHg 80%
03:00 +5°C° 0 mm 8 m/s 741 mmHg 81%
04:00 +5°C° 0 mm 8 m/s 741 mmHg 81%
05:00 +5°C° 0 mm 8 m/s 741 mmHg 82%
06:00 +5°C° 0 mm 8 m/s 741 mmHg 82%
07:00 +5°C° 0 mm 8 m/s 741 mmHg 83%
08:00 +5°C° 0 mm 8 m/s 742 mmHg 83%
09:00 +5°C° 0 mm 8 m/s 742 mmHg 81%
10:00 +5°C° 0 mm 8 m/s 742 mmHg 80%
11:00 +6°C° 0 mm 8 m/s 743 mmHg 78%
12:00 +6°C° 0 mm 7 m/s 743 mmHg 75%
13:00 +6°C° 0 mm 7 m/s 743 mmHg 73%
14:00 +8°C° 0 mm 7 m/s 743 mmHg 70%
15:00 +8°C° 0 mm 6 m/s 743 mmHg 72%
16:00 +7°C° 0 mm 5 m/s 744 mmHg 73%
17:00 +8°C° 0 mm 3 m/s 744 mmHg 75%
18:00 +8°C° 0 mm 3 m/s 744 mmHg 76%
19:00 +7°C° 0 mm 3 m/s 744 mmHg 76%
20:00 +7°C° 0 mm 3 m/s 744 mmHg 77%
21:00 +7°C° 0 mm 3 m/s 745 mmHg 78%
22:00 +7°C° 0 mm 3 m/s 745 mmHg 78%
23:00 +6°C° 0 mm 2 m/s 745 mmHg 79%

26 Outubro, Segunda-feira

Tempo Temperatura Precipitação Vento Pressão Humidade
00:00 +6°C° 0 mm 2 m/s 745 mmHg 82%
01:00 +5°C° 0 mm 2 m/s 745 mmHg 85%
02:00 +5°C° 0 mm 2 m/s 745 mmHg 88%
03:00 +5°C° 0 mm 1 m/s 746 mmHg 89%
04:00 +5°C° 0 mm 1 m/s 746 mmHg 90%
05:00 +5°C° 0 mm 1 m/s 746 mmHg 91%
06:00 +5°C° 0 mm 1 m/s 746 mmHg 90%
07:00 +5°C° 0 mm 1 m/s 746 mmHg 89%
08:00 +4°C° 0 mm 0 m/s 746 mmHg 89%
09:00 +7°C° 0 mm 1 m/s 747 mmHg 83%
10:00 +9°C° 0 mm 1 m/s 747 mmHg 77%
11:00 +10°C° 0 mm 1 m/s 747 mmHg 71%
12:00 +10°C° 0 mm 2 m/s 747 mmHg 69%
13:00 +12°C° 0 mm 2 m/s 747 mmHg 67%
14:00 +12°C° 0 mm 2 m/s 746 mmHg 65%
15:00 +10°C° 0 mm 2 m/s 746 mmHg 70%
16:00 +9°C° 0 mm 2 m/s 746 mmHg 76%
17:00 +8°C° 0 mm 2 m/s 746 mmHg 81%
18:00 +8°C° 0 mm 2 m/s 746 mmHg 84%
19:00 +7°C° 0 mm 3 m/s 746 mmHg 87%
20:00 +7°C° 0 mm 3 m/s 747 mmHg 90%
21:00 +5°C° 0 mm 3 m/s 747 mmHg 91%
22:00 +5°C° 0 mm 3 m/s 747 mmHg 92%
23:00 +5°C° 0 mm 3 m/s 748 mmHg 93%

27 Outubro, Terça-feira

Tempo Temperatura Precipitação Vento Pressão Humidade
00:00 +4°C° 0 mm 3 m/s 748 mmHg 92%
01:00 +4°C° 0 mm 3 m/s 748 mmHg 92%
02:00 +4°C° 0 mm 3 m/s 748 mmHg 92%
03:00 +4°C° 0 mm 3 m/s 748 mmHg 92%
04:00 +3°C° 0 mm 3 m/s 748 mmHg 92%
05:00 +3°C° 0 mm 3 m/s 748 mmHg 92%
06:00 +3°C° 0 mm 3 m/s 748 mmHg 91%
07:00 +3°C° 0 mm 3 m/s 749 mmHg 90%
08:00 +3°C° 0 mm 4 m/s 749 mmHg 89%
09:00 +5°C° 0 mm 4 m/s 749 mmHg 82%
10:00 +7°C° 0 mm 4 m/s 749 mmHg 76%
11:00 +8°C° 0 mm 4 m/s 749 mmHg 69%
12:00 +10°C° 0 mm 4 m/s 749 mmHg 67%
13:00 +11°C° 0 mm 4 m/s 749 mmHg 64%
14:00 +11°C° 0 mm 4 m/s 749 mmHg 62%
15:00 +10°C° 0 mm 4 m/s 749 mmHg 67%
16:00 +9°C° 0 mm 3 m/s 749 mmHg 72%
17:00 +8°C° 0 mm 3 m/s 749 mmHg 77%
18:00 +7°C° 0 mm 3 m/s 749 mmHg 79%
19:00 +7°C° 0 mm 3 m/s 749 mmHg 81%
20:00 +5°C° 0 mm 3 m/s 749 mmHg 83%
21:00 +5°C° 0 mm 3 m/s 750 mmHg 83%
22:00 +4°C° 0 mm 3 m/s 750 mmHg 83%
23:00 +4°C° 0 mm 3 m/s 750 mmHg 83%
Mostrar mais